owner,sensor,date,latitude,longitude,vertical_datum,wind_speed,wind_to_direction,wind_speed_of_gust,qcFlag 
TABS,ioos:station:wmo:42047:1,2014-06-01T00:00:00Z,27.8966,-93.5973,4.0,4.216562581,78.36988673,4.87,'11111222,11111222,11111222' 
TABS,ioos:station:wmo:42047:1,2014-06-01T00:30:00Z,27.8966,-93.5973,4.0,3.820274859,82.78156707,4.67,'11111222,11111222,11111222' 
TABS,ioos:station:wmo:42047:1,2014-06-01T01:00:00Z,27.8966,-93.5973,4.0,3.737378761,84.47205186,4.6,'11111222,11111222,11111222' 
TABS,ioos:station:wmo:42047:1,2014-06-01T01:30:00Z,27.8966,-93.5973,4.0,4.55554607,80.26848148,5.46,'11111222,11111222,11111222' 
TABS,ioos:station:wmo:42047:1,2014-06-01T02:00:00Z,27.8966,-93.5973,4.0,4.995137636,82.29125675,5.78,'11111222,11111222,11111222' 
TABS,ioos:station:wmo:42047:1,2014-06-01T02:30:00Z,27.8966,-93.5973,4.0,4.69180136,91.58816659,5.37,'11111222,11111222,11111222' 
TABS,ioos:station:wmo:42047:1,2014-06-01T03:00:00Z,27.8966,-93.5973,4.0,4.393961766,94.56913224,5.11,'11111222,11111222,11111222' 
TABS,ioos:station:wmo:42047:1,2014-06-01T03:30:00Z,27.8966,-93.5973,4.0,4.065427407,92.96135013,4.84,'11111222,11111222,11111222' 
TABS,ioos:station:wmo:42047:1,2014-06-01T04:00:00Z,27.8966,-93.5973,4.0,3.507050042,79.65091919,4.08,'11111222,11111222,11111222' 
TABS,ioos:station:wmo:42047:1,2014-06-01T04:30:00Z,27.8966,-93.5973,4.0,3.146505999,71.27675798,3.64,'11111222,11111222,11111222' 
TABS,ioos:station:wmo:42047:1,2014-06-01T05:00:00Z,27.8966,-93.5973,4.0,3.549704213,73.3003739,4.24,'11111222,11111222,11111222' 
TABS,ioos:station:wmo:42047:1,2014-06-01T05:30:00Z,27.8966,-93.5973,4.0,3.855606308,57.17514216,4.45,'11111222,11111222,11111222' 
TABS,ioos:station:wmo:42047:1,2014-06-01T06:00:00Z,27.8966,-93.5973,4.0,3.49755629,64.24048585,4.01,'11111222,11111222,11111222' 
TABS,ioos:station:wmo:42047:1,2014-06-01T06:30:00Z,27.8966,-93.5973,4.0,3.324650358,73.03626447,4.0,'11111222,11111222,11111222' 
TABS,ioos:station:wmo:42047:1,2014-06-01T07:00:00Z,27.8966,-93.5973,4.0,3.94391937,70.599882,4.76,'11111222,11111222,11111222' 
TABS,ioos:station:wmo:42047:1,2014-06-01T07:30:00Z,27.8966,-93.5973,4.0,4.338490521,64.32053455,5.11,'11111222,11111222,11111222' 
TABS,ioos:station:wmo:42047:1,2014-06-01T08:00:00Z,27.8966,-93.5973,4.0,4.298115866,64.20961392,4.99,'11111222,11111222,11111222' 
TABS,ioos:station:wmo:42047:1,2014-06-01T08:30:00Z,27.8966,-93.5973,4.0,4.163964457,64.23458464,4.81,'11111222,11111222,11111222' 
TABS,ioos:station:wmo:42047:1,2014-06-01T09:00:00Z,27.8966,-93.5973,4.0,3.068582735,77.00499268,3.62,'11111222,11111222,11111222' 
TABS,ioos:station:wmo:42047:1,2014-06-01T09:30:00Z,27.8966,-93.5973,4.0,4.15462393,127.8632207,5.83,'11111222,11111222,11111222' 
TABS,ioos:station:wmo:42047:1,2014-06-01T10:00:00Z,27.8966,-93.5973,4.0,5.286482763,141.3743453,6.35,'11111222,11111222,11111222' 
TABS,ioos:station:wmo:42047:1,2014-06-01T10:30:00Z,27.8966,-93.5973,4.0,4.981214711,144.3957597,5.94,'11111222,11111222,11111222' 
TABS,ioos:station:wmo:42047:1,2014-06-01T11:00:00Z,27.8966,-93.5973,4.0,4.457140339,131.2708993,5.48,'11111222,11111222,11111222' 
TABS,ioos:station:wmo:42047:1,2014-06-01T11:30:00Z,27.8966,-93.5973,4.0,5.063852289,136.1204789,6.24,'11111222,11111222,11111222' 
TABS,ioos:station:wmo:42047:1,2014-06-01T12:00:00Z,27.8966,-93.5973,4.0,3.31651926,134.3895111,4.21,'11111222,11111222,11111222' 
TABS,ioos:station:wmo:42047:1,2014-06-01T12:30:00Z,27.8966,-93.5973,4.0,3.336405251,144.0234243,3.96,'11111222,11111222,11111222' 
TABS,ioos:station:wmo:42047:1,2014-06-01T13:00:00Z,27.8966,-93.5973,4.0,2.003696584,152.6679149,2.56,'11111222,11111222,11111222' 
TABS,ioos:station:wmo:42047:1,2014-06-01T13:30:00Z,27.8966,-93.5973,4.0,2.606338428,144.0537332,3.18,'11111222,11111222,11111222' 
TABS,ioos:station:wmo:42047:1,2014-06-01T14:00:00Z,27.8966,-93.5973,4.0,2.902585055,137.7930115,3.57,'11111222,11111222,11111222' 
TABS,ioos:station:wmo:42047:1,2014-06-01T14:30:00Z,27.8966,-93.5973,4.0,4.085792457,140.6615622,5.09,'11111222,11111222,11111222' 
TABS,ioos:station:wmo:42047:1,2014-06-01T15:00:00Z,27.8966,-93.5973,4.0,4.324037465,137.3433477,4.96,'11111222,11111222,11111222' 
TABS,ioos:station:wmo:42047:1,2014-06-01T15:30:00Z,27.8966,-93.5973,4.0,5.534699631,125.959211,6.48,'11111222,11111222,11111222' 
TABS,ioos:station:wmo:42047:1,2014-06-01T16:00:00Z,27.8966,-93.5973,4.0,5.072287452,126.2602465,5.82,'11111222,11111222,11111222' 
TABS,ioos:station:wmo:42047:1,2014-06-01T16:30:00Z,27.8966,-93.5973,4.0,5.014538862,123.9439286,5.82,'11111222,11111222,11111222' 
TABS,ioos:station:wmo:42047:1,2014-06-01T17:00:00Z,27.8966,-93.5973,4.0,4.523549491,113.4484287,5.11,'11111222,11111222,11111222' 
TABS,ioos:station:wmo:42047:1,2014-06-01T17:30:00Z,27.8966,-93.5973,4.0,4.979176639,122.7010011,5.68,'11111222,11111222,11111222' 
TABS,ioos:station:wmo:42047:1,2014-06-01T18:00:00Z,27.8966,-93.5973,4.0,5.383539728,120.4712907,6.24,'11111222,11111222,11111222' 
TABS,ioos:station:wmo:42047:1,2014-06-01T18:30:00Z,27.8966,-93.5973,4.0,4.597879946,148.9724134,6.22,'11111222,11111222,11111222' 
TABS,ioos:station:wmo:42047:1,2014-06-01T19:00:00Z,27.8966,-93.5973,4.0,4.493606569,132.745746,5.52,'11111222,11111222,11111222' 
TABS,ioos:station:wmo:42047:1,2014-06-01T19:30:00Z,27.8966,-93.5973,4.0,4.764136858,117.9101312,5.63,'11111222,11111222,11111222' 
TABS,ioos:station:wmo:42047:1,2014-06-01T20:00:00Z,27.8966,-93.5973,4.0,4.121456053,123.9217502,4.73,'11111222,11111222,11111222' 
TABS,ioos:station:wmo:42047:1,2014-06-01T20:30:00Z,27.8966,-93.5973,4.0,5.443087359,119.0140608,6.74,'11111222,11111222,11111222' 
TABS,ioos:station:wmo:42047:1,2014-06-01T21:00:00Z,27.8966,-93.5973,4.0,4.930162269,125.1732522,5.86,'11111222,11111222,11111222' 
TABS,ioos:station:wmo:42047:1,2014-06-01T21:30:00Z,27.8966,-93.5973,4.0,5.502953752,118.195334,6.6,'11111222,11111222,11111222' 
TABS,ioos:station:wmo:42047:1,2014-06-01T22:00:00Z,27.8966,-93.5973,4.0,5.888378385,124.2031691,6.94,'11111222,11111222,11111222' 
TABS,ioos:station:wmo:42047:1,2014-06-01T22:30:00Z,27.8966,-93.5973,4.0,5.662022607,115.9770867,6.86,'11111222,11111222,11111222' 
TABS,ioos:station:wmo:42047:1,2014-06-01T23:00:00Z,27.8966,-93.5973,4.0,5.907706831,116.4352914,7.25,'11111222,11111222,11111222' 
TABS,ioos:station:wmo:42047:1,2014-06-01T23:30:00Z,27.8966,-93.5973,4.0,5.658312469,111.3504939,6.9,'11111222,11111222,11111222' 
TABS,ioos:station:wmo:42047:1,2014-06-02T00:00:00Z,27.8966,-93.5973,4.0,5.63021314,114.3348312,7.18,'11111222,11111222,11111222' 
TABS,ioos:station:wmo:42047:1,2014-06-02T00:30:00Z,27.8966,-93.5973,4.0,7.334152984,121.8483923,8.66,'11111222,11111222,11111222' 
TABS,ioos:station:wmo:42047:1,2014-06-02T01:00:00Z,27.8966,-93.5973,4.0,7.029516342,125.6801411,8.73,'11111222,11111222,11111222' 
TABS,ioos:station:wmo:42047:1,2014-06-02T01:30:00Z,27.8966,-93.5973,4.0,5.833095233,112.476673,7.46,'11111222,11111222,11111222' 
TABS,ioos:station:wmo:42047:1,2014-06-02T02:00:00Z,27.8966,-93.5973,4.0,6.176609102,148.0342332,7.75,'11111222,11111222,11111222' 
TABS,ioos:station:wmo:42047:1,2014-06-02T02:30:00Z,27.8966,-93.5973,4.0,5.325908373,124.6750816,6.56,'11111222,11111222,11111222' 
TABS,ioos:station:wmo:42047:1,2014-06-02T03:00:00Z,27.8966,-93.5973,4.0,6.875354536,117.8326411,8.41,'11111222,11111222,11111222' 
TABS,ioos:station:wmo:42047:1,2014-06-02T03:30:00Z,27.8966,-93.5973,4.0,7.461132622,127.8685809,8.8,'11111222,11111222,11111222' 
TABS,ioos:station:wmo:42047:1,2014-06-02T04:00:00Z,27.8966,-93.5973,4.0,7.7422994,130.8103178,9.24,'11111222,11111222,11111222' 
TABS,ioos:station:wmo:42047:1,2014-06-02T04:30:00Z,27.8966,-93.5973,4.0,8.226208118,133.5719155,9.45,'11111222,11111222,11111222' 
TABS,ioos:station:wmo:42047:1,2014-06-02T05:00:00Z,27.8966,-93.5973,4.0,8.796590248,134.63186,10.41,'11111222,11111222,11111222' 
TABS,ioos:station:wmo:42047:1,2014-06-02T05:30:00Z,27.8966,-93.5973,4.0,8.373111727,134.1293341,10.41,'11111222,11111222,11111222' 
TABS,ioos:station:wmo:42047:1,2014-06-02T06:00:00Z,27.8966,-93.5973,4.0,8.835638064,136.6971284,10.49,'11111222,11111222,11111222' 
TABS,ioos:station:wmo:42047:1,2014-06-02T06:30:00Z,27.8966,-93.5973,4.0,7.553806987,136.2876416,8.84,'11111222,11111222,11111222' 
TABS,ioos:station:wmo:42047:1,2014-06-02T07:00:00Z,27.8966,-93.5973,4.0,7.679231732,138.4844948,8.97,'11111222,11111222,11111222' 
TABS,ioos:station:wmo:42047:1,2014-06-02T07:30:00Z,27.8966,-93.5973,4.0,7.886507465,130.5779806,9.48,'11111222,11111222,11111222' 
TABS,ioos:station:wmo:42047:1,2014-06-02T08:00:00Z,27.8966,-93.5973,4.0,6.696991862,131.1862498,8.28,'11111222,11111222,11111222' 
TABS,ioos:station:wmo:42047:1,2014-06-02T08:30:00Z,27.8966,-93.5973,4.0,6.147332755,119.3174886,7.2,'11111222,11111222,11111222' 
TABS,ioos:station:wmo:42047:1,2014-06-02T09:00:00Z,27.8966,-93.5973,4.0,6.572252278,114.9277233,7.63,'11111222,11111222,11111222' 
TABS,ioos:station:wmo:42047:1,2014-06-02T09:30:00Z,27.8966,-93.5973,4.0,6.411021759,121.6078493,7.6,'11111222,11111222,11111222' 
TABS,ioos:station:wmo:42047:1,2014-06-02T10:00:00Z,27.8966,-93.5973,4.0,5.925824837,135.5472742,7.12,'11111222,11111222,11111222' 
TABS,ioos:station:wmo:42047:1,2014-06-02T10:30:00Z,27.8966,-93.5973,4.0,4.002324325,123.1742466,4.79,'11111222,11111222,11111222' 
TABS,ioos:station:wmo:42047:1,2014-06-02T11:00:00Z,27.8966,-93.5973,4.0,5.732468927,147.9737129,7.06,'11111222,11111222,11111222' 
TABS,ioos:station:wmo:42047:1,2014-06-02T11:30:00Z,27.8966,-93.5973,4.0,4.898203752,123.171324,6.84,'11111222,11111222,11111222' 
TABS,ioos:station:wmo:42047:1,2014-06-02T12:00:00Z,27.8966,-93.5973,4.0,5.425025346,114.1558761,6.27,'11111222,11111222,11111222' 
TABS,ioos:station:wmo:42047:1,2014-06-02T12:30:00Z,27.8966,-93.5973,4.0,5.979874581,111.072278,6.96,'11111222,11111222,11111222' 
TABS,ioos:station:wmo:42047:1,2014-06-02T13:00:00Z,27.8966,-93.5973,4.0,5.57032315,127.4873968,6.89,'11111222,11111222,11111222' 
TABS,ioos:station:wmo:42047:1,2014-06-02T13:30:00Z,27.8966,-93.5973,4.0,6.602984174,131.4392991,7.75,'11111222,11111222,11111222' 
TABS,ioos:station:wmo:42047:1,2014-06-02T14:00:00Z,27.8966,-93.5973,4.0,6.732607222,135.9631771,7.75,'11111222,11111222,11111222' 
TABS,ioos:station:wmo:42047:1,2014-06-02T14:30:00Z,27.8966,-93.5973,4.0,6.847955899,149.1656673,8.17,'11111222,11111222,11111222' 
TABS,ioos:station:wmo:42047:1,2014-06-02T15:00:00Z,27.8966,-93.5973,4.0,5.926381695,144.7548233,7.47,'11111222,11111222,11111222' 
TABS,ioos:station:wmo:42047:1,2014-06-02T15:30:00Z,27.8966,-93.5973,4.0,5.483912837,137.143282,6.48,'11111222,11111222,11111222' 
TABS,ioos:station:wmo:42047:1,2014-06-02T16:00:00Z,27.8966,-93.5973,4.0,5.504588995,147.840437,6.45,'11111222,11111222,11111222' 
TABS,ioos:station:wmo:42047:1,2014-06-02T16:30:00Z,27.8966,-93.5973,4.0,3.819031291,136.0612249,4.45,'11111222,11111222,11111222' 
TABS,ioos:station:wmo:42047:1,2014-06-02T17:00:00Z,27.8966,-93.5973,4.0,3.631927863,105.4907178,4.47,'11111222,11111222,11111222' 
TABS,ioos:station:wmo:42047:1,2014-06-02T17:30:00Z,27.8966,-93.5973,4.0,4.105423242,100.2428298,8.0,'11111222,11111222,11111222' 
TABS,ioos:station:wmo:42047:1,2014-06-02T18:00:00Z,27.8966,-93.5973,4.0,5.558201148,114.4443185,6.68,'11111222,11111222,11111222' 
TABS,ioos:station:wmo:42047:1,2014-06-02T18:30:00Z,27.8966,-93.5973,4.0,5.110772936,112.5512437,5.72,'11111222,11111222,11111222' 
TABS,ioos:station:wmo:42047:1,2014-06-02T19:00:00Z,27.8966,-93.5973,4.0,4.146540727,95.11977792,5.01,'11111222,11111222,11111222' 
TABS,ioos:station:wmo:42047:1,2014-06-02T19:30:00Z,27.8966,-93.5973,4.0,4.436056808,114.0808809,6.78,'11111222,11111222,11111222' 
TABS,ioos:station:wmo:42047:1,2014-06-02T20:00:00Z,27.8966,-93.5973,4.0,3.727733896,86.30820173,4.98,'11111222,11111222,11111222' 
TABS,ioos:station:wmo:42047:1,2014-06-02T20:30:00Z,27.8966,-93.5973,4.0,4.788026733,107.7541688,5.54,'11111222,11111222,11111222' 
TABS,ioos:station:wmo:42047:1,2014-06-02T21:00:00Z,27.8966,-93.5973,4.0,3.478160433,149.6015538,4.28,'11111222,11111222,11111222' 
TABS,ioos:station:wmo:42047:1,2014-06-02T21:30:00Z,27.8966,-93.5973,4.0,5.452861634,103.1446451,6.61,'11111222,11111222,11111222' 
TABS,ioos:station:wmo:42047:1,2014-06-02T22:00:00Z,27.8966,-93.5973,4.0,6.784283308,104.7740393,8.57,'11111222,11111222,11111222' 
TABS,ioos:station:wmo:42047:1,2014-06-02T22:30:00Z,27.8966,-93.5973,4.0,6.351724175,105.5244956,7.62,'11111222,11111222,11111222' 
TABS,ioos:station:wmo:42047:1,2014-06-02T23:00:00Z,27.8966,-93.5973,4.0,6.400945243,111.635561,7.54,'11111222,11111222,11111222' 
TABS,ioos:station:wmo:42047:1,2014-06-02T23:30:00Z,27.8966,-93.5973,4.0,6.691487129,108.1104021,7.72,'11111222,11111222,11111222' 
TABS,ioos:station:wmo:42047:1,2014-06-03T00:00:00Z,27.8966,-93.5973,4.0,7.188560357,112.3198091,8.79,'11111222,11111222,11111222' 
TABS,ioos:station:wmo:42047:1,2014-06-03T00:30:00Z,27.8966,-93.5973,4.0,6.422250384,116.046731,7.43,'11111222,11111222,11111222' 
TABS,ioos:station:wmo:42047:1,2014-06-03T01:00:00Z,27.8966,-93.5973,4.0,7.278804847,110.6761869,8.7,'11111222,11111222,11111222' 
TABS,ioos:station:wmo:42047:1,2014-06-03T01:30:00Z,27.8966,-93.5973,4.0,6.371326393,111.4510964,7.74,'11111222,11111222,11111222' 
TABS,ioos:station:wmo:42047:1,2014-06-03T02:00:00Z,27.8966,-93.5973,4.0,6.338083306,115.5142317,7.35,'11111222,11111222,11111222' 
TABS,ioos:station:wmo:42047:1,2014-06-03T02:30:00Z,27.8966,-93.5973,4.0,6.193908298,116.56541,7.12,'11111222,11111222,11111222' 
TABS,ioos:station:wmo:42047:1,2014-06-03T03:00:00Z,27.8966,-93.5973,4.0,6.347164721,112.1202715,7.69,'11111222,11111222,11111222' 
TABS,ioos:station:wmo:42047:1,2014-06-03T03:30:00Z,27.8966,-93.5973,4.0,6.193294761,120.2501281,7.91,'11111222,11111222,11111222' 
TABS,ioos:station:wmo:42047:1,2014-06-03T04:00:00Z,27.8966,-93.5973,4.0,5.909314681,113.9628539,6.97,'11111222,11111222,11111222' 
TABS,ioos:station:wmo:42047:1,2014-06-03T04:30:00Z,27.8966,-93.5973,4.0,7.186939543,112.4975838,8.77,'11111222,11111222,11111222' 
TABS,ioos:station:wmo:42047:1,2014-06-03T05:00:00Z,27.8966,-93.5973,4.0,4.964524146,115.7911916,5.91,'11111222,11111222,11111222' 
TABS,ioos:station:wmo:42047:1,2014-06-03T05:30:00Z,27.8966,-93.5973,4.0,5.686308117,141.4978546,6.81,'11111222,11111222,11111222' 
TABS,ioos:station:wmo:42047:1,2014-06-03T06:00:00Z,27.8966,-93.5973,4.0,5.958095333,141.6108239,6.96,'11111222,11111222,11111222' 
TABS,ioos:station:wmo:42047:1,2014-06-03T06:30:00Z,27.8966,-93.5973,4.0,6.308002854,143.1848971,7.21,'11111222,11111222,11111222' 
TABS,ioos:station:wmo:42047:1,2014-06-03T07:00:00Z,27.8966,-93.5973,4.0,6.498030471,137.6198584,7.54,'11111222,11111222,11111222' 
TABS,ioos:station:wmo:42047:1,2014-06-03T07:30:00Z,27.8966,-93.5973,4.0,6.360455958,138.3144027,7.44,'11111222,11111222,11111222' 
TABS,ioos:station:wmo:42047:1,2014-06-03T08:00:00Z,27.8966,-93.5973,4.0,5.836180258,153.6547439,7.19,'11111222,11111222,11111222' 
TABS,ioos:station:wmo:42047:1,2014-06-03T08:30:00Z,27.8966,-93.5973,4.0,5.693680708,151.0043187,6.78,'11111222,11111222,11111222' 
TABS,ioos:station:wmo:42047:1,2014-06-03T09:00:00Z,27.8966,-93.5973,4.0,6.107479022,162.6630155,7.47,'11111222,11111222,11111222' 
TABS,ioos:station:wmo:42047:1,2014-06-03T09:30:00Z,27.8966,-93.5973,4.0,5.689894551,158.6663322,6.91,'11111222,11111222,11111222' 
TABS,ioos:station:wmo:42047:1,2014-06-03T10:00:00Z,27.8966,-93.5973,4.0,5.020677245,165.4657894,6.19,'11111222,11111222,11111222' 
TABS,ioos:station:wmo:42047:1,2014-06-03T10:30:00Z,27.8966,-93.5973,4.0,4.746409169,157.9746917,5.55,'11111222,11111222,11111222' 
TABS,ioos:station:wmo:42047:1,2014-06-03T11:00:00Z,27.8966,-93.5973,4.0,4.884393514,142.4030978,5.83,'11111222,11111222,11111222' 
TABS,ioos:station:wmo:42047:1,2014-06-03T11:30:00Z,27.8966,-93.5973,4.0,3.354101966,132.8255767,4.2,'11111222,11111222,11111222' 
TABS,ioos:station:wmo:42047:1,2014-06-03T12:00:00Z,27.8966,-93.5973,4.0,2.935523803,114.5573913,3.71,'11111222,11111222,11111222' 
TABS,ioos:station:wmo:42047:1,2014-06-03T12:30:00Z,27.8966,-93.5973,4.0,3.363807367,87.27327446,4.34,'11111222,11111222,11111222' 
TABS,ioos:station:wmo:42047:1,2014-06-03T13:00:00Z,27.8966,-93.5973,4.0,3.131022197,111.1561263,3.98,'11111222,11111222,11111222' 
TABS,ioos:station:wmo:42047:1,2014-06-03T13:30:00Z,27.8966,-93.5973,4.0,3.752026119,104.0366316,5.15,'11111222,11111222,11111222' 
TABS,ioos:station:wmo:42047:1,2014-06-03T14:00:00Z,27.8966,-93.5973,4.0,4.659291792,112.3269938,5.95,'11111222,11111222,11111222' 
TABS,ioos:station:wmo:42047:1,2014-06-03T14:30:00Z,27.8966,-93.5973,4.0,4.164336682,87.384528,5.07,'11111222,11111222,11111222' 
TABS,ioos:station:wmo:42047:1,2014-06-03T15:00:00Z,27.8966,-93.5973,4.0,2.214520264,54.3717551,2.72,'11111222,11111222,11111222' 
TABS,ioos:station:wmo:42047:1,2014-06-03T15:30:00Z,27.8966,-93.5973,4.0,2.549509757,62.42950637,3.48,'11111222,11111222,11111222' 
TABS,ioos:station:wmo:42047:1,2014-06-03T16:00:00Z,27.8966,-93.5973,4.0,2.618797434,59.22350282,3.27,'11111222,11111222,11111222' 
TABS,ioos:station:wmo:42047:1,2014-06-03T16:30:00Z,27.8966,-93.5973,4.0,2.956771888,55.61089759,3.88,'11111222,11111222,11111222' 
TABS,ioos:station:wmo:42047:1,2014-06-03T17:00:00Z,27.8966,-93.5973,4.0,4.797176253,108.4730957,5.59,'11111222,11111222,11111222' 
TABS,ioos:station:wmo:42047:1,2014-06-03T17:30:00Z,27.8966,-93.5973,4.0,5.050089108,117.732476,5.89,'11111222,11111222,11111222' 
TABS,ioos:station:wmo:42047:1,2014-06-03T18:00:00Z,27.8966,-93.5973,4.0,5.307692531,112.6036255,6.82,'11111222,11111222,11111222' 
TABS,ioos:station:wmo:42047:1,2014-06-03T18:30:00Z,27.8966,-93.5973,4.0,5.043857651,120.63292,6.25,'11111222,11111222,11111222' 
TABS,ioos:station:wmo:42047:1,2014-06-03T19:00:00Z,27.8966,-93.5973,4.0,5.205573936,107.6695738,6.16,'11111222,11111222,11111222' 
TABS,ioos:station:wmo:42047:1,2014-06-03T19:30:00Z,27.8966,-93.5973,4.0,5.150067961,109.9834807,5.96,'11111222,11111222,11111222' 
TABS,ioos:station:wmo:42047:1,2014-06-03T20:00:00Z,27.8966,-93.5973,4.0,4.69920206,110.5564181,5.59,'11111222,11111222,11111222' 
TABS,ioos:station:wmo:42047:1,2014-06-03T20:30:00Z,27.8966,-93.5973,4.0,5.003009095,101.6472242,5.93,'11111222,11111222,11111222' 
TABS,ioos:station:wmo:42047:1,2014-06-03T21:00:00Z,27.8966,-93.5973,4.0,5.101813403,100.2751088,5.89,'11111222,11111222,11111222' 
TABS,ioos:station:wmo:42047:1,2014-06-03T21:30:00Z,27.8966,-93.5973,4.0,4.600271731,89.37682485,5.56,'11111222,11111222,11111222' 
TABS,ioos:station:wmo:42047:1,2014-06-03T22:00:00Z,27.8966,-93.5973,4.0,4.99264459,96.55604163,6.14,'11111222,11111222,11111222' 
TABS,ioos:station:wmo:42047:1,2014-06-03T22:30:00Z,27.8966,-93.5973,4.0,5.777586001,108.780288,7.85,'11111222,11111222,11111222' 
TABS,ioos:station:wmo:42047:1,2014-06-03T23:00:00Z,27.8966,-93.5973,4.0,5.866216839,108.8986236,6.98,'11111222,11111222,11111222' 
TABS,ioos:station:wmo:42047:1,2014-06-03T23:30:00Z,27.8966,-93.5973,4.0,5.633684407,119.5686284,6.83,'11111222,11111222,11111222' 
TABS,ioos:station:wmo:42047:1,2014-06-04T00:00:00Z,27.8966,-93.5973,4.0,5.14393818,112.2775085,6.23,'11111222,11111222,11111222' 
TABS,ioos:station:wmo:42047:1,2014-06-04T00:30:00Z,27.8966,-93.5973,4.0,4.997129176,112.0998589,5.75,'11111222,11111222,11111222' 
TABS,ioos:station:wmo:42047:1,2014-06-04T01:00:00Z,27.8966,-93.5973,4.0,4.933041658,102.289839,5.88,'11111222,11111222,11111222' 
TABS,ioos:station:wmo:42047:1,2014-06-04T01:30:00Z,27.8966,-93.5973,4.0,4.792514997,105.8636706,5.79,'11111222,11111222,11111222' 
TABS,ioos:station:wmo:42047:1,2014-06-04T02:00:00Z,27.8966,-93.5973,4.0,4.923789191,108.8401061,5.95,'11111222,11111222,11111222' 
TABS,ioos:station:wmo:42047:1,2014-06-04T02:30:00Z,27.8966,-93.5973,4.0,4.816565166,116.2462175,5.79,'11111222,11111222,11111222' 
TABS,ioos:station:wmo:42047:1,2014-06-04T03:00:00Z,27.8966,-93.5973,4.0,4.476538842,120.1738704,5.36,'11111222,11111222,11111222' 
TABS,ioos:station:wmo:42047:1,2014-06-04T03:30:00Z,27.8966,-93.5973,4.0,4.484016057,127.0235656,5.17,'11111222,11111222,11111222' 
TABS,ioos:station:wmo:42047:1,2014-06-04T04:00:00Z,27.8966,-93.5973,4.0,4.915658654,130.4625538,5.67,'11111222,11111222,11111222' 
TABS,ioos:station:wmo:42047:1,2014-06-04T04:30:00Z,27.8966,-93.5973,4.0,4.077744475,132.2173014,4.78,'11111222,11111222,11111222' 
TABS,ioos:station:wmo:42047:1,2014-06-04T05:00:00Z,27.8966,-93.5973,4.0,4.09444746,135.6929754,4.77,'11111222,11111222,11111222' 
TABS,ioos:station:wmo:42047:1,2014-06-04T05:30:00Z,27.8966,-93.5973,4.0,4.093531483,129.2503439,5.07,'11111222,11111222,11111222' 
TABS,ioos:station:wmo:42047:1,2014-06-04T06:00:00Z,27.8966,-93.5973,4.0,3.954339389,128.8411671,4.54,'11111222,11111222,11111222' 
TABS,ioos:station:wmo:42047:1,2014-06-04T06:30:00Z,27.8966,-93.5973,4.0,4.585302607,124.6954933,5.24,'11111222,11111222,11111222' 
TABS,ioos:station:wmo:42047:1,2014-06-04T07:00:00Z,27.8966,-93.5973,4.0,4.833735615,140.8776946,5.6,'11111222,11111222,11111222' 
TABS,ioos:station:wmo:42047:1,2014-06-04T07:30:00Z,27.8966,-93.5973,4.0,4.707440918,139.1349774,5.46,'11111222,11111222,11111222' 
TABS,ioos:station:wmo:42047:1,2014-06-04T08:00:00Z,27.8966,-93.5973,4.0,4.255091068,139.3844057,4.86,'11111222,11111222,11111222' 
TABS,ioos:station:wmo:42047:1,2014-06-04T08:30:00Z,27.8966,-93.5973,4.0,4.392356998,142.399893,5.14,'11111222,11111222,11111222' 
TABS,ioos:station:wmo:42047:1,2014-06-04T09:00:00Z,27.8966,-93.5973,4.0,4.340518402,140.5158551,5.01,'11111222,11111222,11111222' 
TABS,ioos:station:wmo:42047:1,2014-06-04T09:30:00Z,27.8966,-93.5973,4.0,3.961035218,136.4324085,4.76,'11111222,11111222,11111222' 
TABS,ioos:station:wmo:42047:1,2014-06-04T10:00:00Z,27.8966,-93.5973,4.0,3.900833244,132.194969,4.32,'11111222,11111222,11111222' 
TABS,ioos:station:wmo:42047:1,2014-06-04T10:30:00Z,27.8966,-93.5973,4.0,3.398190695,126.2632382,4.03,'11111222,11111222,11111222' 
TABS,ioos:station:wmo:42047:1,2014-06-04T11:00:00Z,27.8966,-93.5973,4.0,4.246469122,139.1063152,4.95,'11111222,11111222,11111222' 
TABS,ioos:station:wmo:42047:1,2014-06-04T11:30:00Z,27.8966,-93.5973,4.0,3.762578903,142.1253154,4.41,'11111222,11111222,11111222' 
TABS,ioos:station:wmo:42047:1,2014-06-04T12:00:00Z,27.8966,-93.5973,4.0,3.310135949,127.389514,3.84,'11111222,11111222,11111222' 
TABS,ioos:station:wmo:42047:1,2014-06-04T12:30:00Z,27.8966,-93.5973,4.0,2.969882153,135.27315,3.45,'11111222,11111222,11111222' 
TABS,ioos:station:wmo:42047:1,2014-06-04T13:00:00Z,27.8966,-93.5973,4.0,3.44681012,137.4694402,3.8,'11111222,11111222,11111222' 
TABS,ioos:station:wmo:42047:1,2014-06-04T13:30:00Z,27.8966,-93.5973,4.0,3.40261664,130.9486413,3.94,'11111222,11111222,11111222' 
TABS,ioos:station:wmo:42047:1,2014-06-04T14:00:00Z,27.8966,-93.5973,4.0,3.095238278,123.5363895,3.86,'11111222,11111222,11111222' 
TABS,ioos:station:wmo:42047:1,2014-06-04T14:30:00Z,27.8966,-93.5973,4.0,3.429868802,131.2176791,4.03,'11111222,11111222,11111222' 
TABS,ioos:station:wmo:42047:1,2014-06-04T15:00:00Z,27.8966,-93.5973,4.0,3.651410686,114.600154,4.21,'11111222,11111222,11111222' 
TABS,ioos:station:wmo:42047:1,2014-06-04T15:30:00Z,27.8966,-93.5973,4.0,3.839192623,131.6214693,4.58,'11111222,11111222,11111222' 
TABS,ioos:station:wmo:42047:1,2014-06-04T16:00:00Z,27.8966,-93.5973,4.0,4.781066827,136.1867423,5.39,'11111222,11111222,11111222' 
TABS,ioos:station:wmo:42047:1,2014-06-04T16:30:00Z,27.8966,-93.5973,4.0,4.422352315,147.7477029,5.68,'11111222,11111222,11111222' 
TABS,ioos:station:wmo:42047:1,2014-06-04T17:00:00Z,27.8966,-93.5973,4.0,3.947986829,160.0047517,4.6,'11111222,11111222,11111222' 
TABS,ioos:station:wmo:42047:1,2014-06-04T17:30:00Z,27.8966,-93.5973,4.0,3.171277345,144.7566524,4.02,'11111222,11111222,11111222' 
TABS,ioos:station:wmo:42047:1,2014-06-04T18:00:00Z,27.8966,-93.5973,4.0,2.347977853,136.0356665,3.11,'11111222,11111222,11111222' 
TABS,ioos:station:wmo:42047:1,2014-06-04T18:30:00Z,27.8966,-93.5973,4.0,2.363493177,124.833481,3.21,'11111222,11111222,11111222' 